GSAT0214 (GALILEO 18)

Last updated on Sat Sep 05 2026 00:02:48 GMT+0000 (Coordinated Universal Time)

1 41862U 16069D 26247.30149258 .00000012 00000+0 00000+0 0 9997 2 41862 55.5467 98.8911 0002230 358.1061 1.9779 1.70474000 60992
UTC large
Height (km)
Speed (km/s)
/
Latitude / Longitude
Inclination (degrees)
Orbital Period (minutes)
Azimuth
Elevation
Range (km)
Doppler Factor

Next 0 passes for location: London (51.5072 / 0.1276)

No passes found over London.
GSAT0214 (GALILEO 18)